User: anonymous   Login
Location: Betra
(48.4113°N, 8.6634°E)
Time: 12:33:41
(UTC+00:00)
Language:

SL-08 R/B - Orbit

View from above orbital plane
View from above orbital plane
View from above satellite
View from above satellite

Ground track
Ground track

The orbit data is extracted from the following two-line orbital elements,

1 28381U 04028B   24202.78084888  .00000051  00000-0  35847-4 0  9994
2 28381  82.9559 209.2261 0030736 319.3037 221.5305 13.78472102  5816
Epoch (UTC): 20 July 2024 18:44:25
Eccentricity: 0.0030736
inclination: 82.9559°
perigee height: 947 km
apogee height: 992 km
right ascension of ascending node: 209.2261°
argument of perigee: 319.3037°
revolutions per day: 13.78472102
mean anomaly at epoch: 221.5305°
orbit number at epoch: 581

The dashed part of the orbit path shows where the satellite is in the earth's shadow,  

DLR